Regional Weather Roundup
Issued by NWS

Home | Current Version | Previous Version | Text Only | Print | Product List | Glossary On
Versions: 1 2 3 4 5 6 7 8 9 10 11 12 13 14 15 16 17 18 19 20 21 22 23 24 25 26 27 28 29 30 31 32 33 34 35 36 37 38 39 40 41 42 43 44 45 46 47 48 49 50
000
ASUS45 KABQ 272310
RWRNM
NEW MEXICO REGIONAL WEATHER ROUNDUP
NATIONAL WEATHER SERVICE ALBUQUERQUE NM
400 PM MST MON FEB 27 2017

NOTE: "FAIR" MEANS FEW OR NO CLOUDS BELOW 12,000 FEET AGL WITH NO
       SIGNIFICANT WEATHER OR OBSTRUCTIONS TO VISION.

      THIS PRODUCT IS RELEASED AS TWO VERSIONS.  ONE VERSION NEAR
      THE TOP OF THE HOUR CONTAINING PRELIMINARY DATA FROM ALBUQUERQUE
      AND OTHER STATIONS.  A FINAL VERSION WITH ADDITIONAL DATA IS
      ISSUED ABOUT 10 MINUTES AFTER THE HOUR.

NMZ501-503-504-510>518-280000-
NORTHWEST PLATEAU/NORTHCENTRAL MOUNTAINS

CITY           SKY/WX    TMP DP  RH WIND       PRES   REMARKS
FARMINGTON     PTSUNNY   47  21  35 SW16      29.81F
LOS ALAMOS     PTSUNNY   45  16  30 S13G18    29.86S
SANTA FE       FAIR      51  17  26 SW13G18   29.85F
TAOS             N/A     45  10  24 W25       29.84F
ANGEL FIRE     FAIR      38  13  35 SW13G18   29.85F WCI  30

$$
NMZ402-403-502-505>509-280000-
WESTCENTRAL MOUNTAINS/SOUTHWEST MOUNTAINS

CITY           SKY/WX    TMP DP  RH WIND       PRES   REMARKS
GALLUP         LGT RAIN  39  34  82 SW17G26   29.89S WCI  30
GRANTS         FAIR      51  21  31 SW12G24   29.88S
SILVER CITY    FAIR      58  19  22 SW14G29   29.96S

$$
NMZ407-409-411-412-280000-
SOUTHERN DESERTS

CITY           SKY/WX    TMP DP  RH WIND       PRES   REMARKS
DEMING         FAIR      65  22  19 W15G26    29.91F
LAS CRUCES     FAIR      66  19  16 W17G25    29.91F
HOLLOMAN AFB   FAIR      65  19  16 SW17      29.94F
ALAMOGORDO     FAIR      63  23  22 SW13      29.93S
T OR C         FAIR      63   4   9 SW22G29   29.85S

$$
NMZ519>523-280000-
CENTRAL VALLEYS/CENTRAL HIGHLANDS

CITY           SKY/WX    TMP DP  RH WIND       PRES   REMARKS
ALBUQUERQUE    PTSUNNY   58  11  15 SW14G20   29.83S
DOUBLE EAGLE   PTSUNNY   57  18  21 SW8       29.84F
MORIARTY ARPT  FAIR      60  16  18 W15G24    29.85F
CLINES CORNERS FAIR      54  13  19 W20G30    29.87S
BELEN          FAIR      61  11  13 SW23G30   29.81F
SOCORRO        FAIR      64   8  11 S16G23    29.82F

$$
NMZ524>526-539-540-280000-
SOUTHCENTRAL MOUNTAINS

CITY           SKY/WX    TMP DP  RH WIND       PRES   REMARKS
RUIDOSO        FAIR      52   9  17 SW38G48   29.90F

$$
NMZ527>531-280000-
NORTHEAST HIGHLANDS/NORTHEAST PLAINS

CITY           SKY/WX    TMP DP  RH WIND       PRES   REMARKS
LAS VEGAS      FAIR      50  11  20 W29G43    29.81F
RATON          FAIR      53   8  16 W24G38    29.73R
CLAYTON        FAIR      65  10  11 SW26G39   29.68R

$$
NMZ532>537-280000-
EASTCENTRAL PLAINS

CITY           SKY/WX    TMP DP  RH WIND       PRES   REMARKS
TUCUMCARI      FAIR      70   9   9 W28G36    29.74R
CANNON AFB     FAIR      67  11  11 W23G32    29.79S
CLOVIS AIRPORT FAIR      68  16  13 SW20G30   29.80S

$$
NMZ028-029-538-280000-
SOUTHEAST PLAINS

CITY           SKY/WX    TMP DP  RH WIND       PRES   REMARKS
ROSWELL        FAIR      75   2   6 W14         N/A
ARTESIA        FAIR      70  18  13 SW30G38   29.83R
CARLSBAD       FAIR      71  18  13 W21G28    29.85R
HOBBS          SUNNY     70  18  13 SW18      29.86R


$$



USA.gov is the U.S. government's official web portal to all federal, state and local government web resources and services.